Location: Maiden_LMO
(35.5760°N, 81.2120°W)
Time: 06:43:46
(UTC-04:00)

ADEOS II - Visible Passes

Search period start: 23 May 2017 00:00
Search period end: 02 June 2017 00:00
Orbit: 799 x 802 km, 98.4° (Epoch: 22 May)

Date Brightness Start Highest point End Pass type
(mag) Time Alt. Az. Time Alt. Az. Time Alt. Az.
23 May 4.6 03:58:00 10° ENE 04:00:54 15° E 04:03:46 10° SE visible
23 May 2.3 05:35:47 10° N 05:40:55 57° WNW 05:46:03 10° SSW visible
24 May 2.2 05:09:18 10° NNE 05:14:35 80° ESE 05:19:50 10° S visible
25 May 3.1 04:43:07 10° NNE 04:48:09 43° E 04:53:07 10° S visible
26 May 4.1 04:17:24 10° NE 04:21:37 24° E 04:25:48 10° SSE visible
27 May 4.7 03:52:39 10° ENE 03:54:59 13° E 03:57:18 10° ESE visible
27 May 2.2 05:29:52 10° N 05:35:05 64° WNW 05:40:16 10° SSW visible
28 May 2.3 05:03:27 10° NNE 05:08:43 71° ESE 05:13:57 10° S visible
29 May 3.3 04:37:22 10° NNE 04:42:15 38° E 04:47:08 10° SSE visible
30 May 4.2 04:11:45 10° NE 04:15:42 21° E 04:19:38 10° SE visible
31 May 4.8 03:47:34 10° ENE 03:49:03 11° E 03:50:32 10° ESE visible
31 May 2.1 05:23:59 10° N 05:29:14 73° WNW 05:34:28 10° SSW visible
01 Jun 2.5 04:57:37 10° NNE 05:02:51 63° E 05:08:02 10° S visible
